TimeEST,TemperatureF,Dew PointF,Humidity,Sea Level PressureIn,VisibilityMPH,Wind Direction,Wind SpeedMPH,Gust SpeedMPH,PrecipitationIn,Events,Conditions,WindDirDegrees,DateUTC
12:53 AM,37.0,26.1,65,29.67,10.0,NW,3.5,-,N/A,,Overcast,310,2013-03-02 05:53:00
1:53 AM,36.0,26.1,67,29.66,10.0,NW,5.8,-,N/A,,Overcast,310,2013-03-02 06:53:00
2:53 AM,36.0,25.0,64,29.65,10.0,NW,4.6,-,N/A,,Overcast,310,2013-03-02 07:53:00
3:53 AM,36.0,25.0,64,29.65,10.0,WNW,4.6,-,N/A,,Overcast,300,2013-03-02 08:53:00
4:53 AM,35.1,25.0,67,29.67,10.0,WNW,5.8,-,N/A,,Overcast,300,2013-03-02 09:53:00
5:53 AM,34.0,25.0,70,29.66,10.0,WNW,6.9,-,N/A,,Overcast,300,2013-03-02 10:53:00
7:53 AM,36.0,25.0,64,29.68,10.0,WNW,6.9,-,N/A,,Overcast,290,2013-03-02 12:53:00
8:53 AM,37.0,25.0,62,29.68,10.0,NW,8.1,17.3,N/A,,Overcast,310,2013-03-02 13:53:00
9:53 AM,39.2,24.8,56,29.66,10.0,WNW,8.1,16.1,N/A,,Clear,290,2013-03-02 14:53:00
10:53 AM,43.0,26.1,51,29.65,10.0,WNW,9.2,-,N/A,,Mostly Cloudy,290,2013-03-02 15:53:00
11:53 AM,43.0,25.0,49,29.64,10.0,NW,8.1,-,N/A,,Scattered Clouds,310,2013-03-02 16:53:00
12:53 PM,42.1,25.0,51,29.62,10.0,Variable,5.8,-,N/A,,Overcast,0,2013-03-02 17:53:00
1:53 PM,42.1,25.0,51,29.63,10.0,West,8.1,-,N/A,,Overcast,260,2013-03-02 18:53:00
2:53 PM,41.0,25.0,53,29.62,10.0,West,10.4,-,N/A,,Overcast,260,2013-03-02 19:53:00
3:53 PM,41.0,25.0,53,29.62,10.0,West,10.4,-,N/A,,Overcast,270,2013-03-02 20:53:00
4:53 PM,39.9,25.0,55,29.62,10.0,West,8.1,-,N/A,,Overcast,280,2013-03-02 21:53:00
5:53 PM,39.9,26.1,58,29.64,10.0,West,5.8,-,N/A,,Overcast,260,2013-03-02 22:53:00
6:53 PM,39.0,26.1,60,29.65,10.0,Calm,Calm,-,N/A,,Overcast,0,2013-03-02 23:53:00
7:53 PM,37.4,26.6,65,29.64,10.0,SW,3.5,-,N/A,,Overcast,230,2013-03-03 00:53:00
8:53 PM,37.9,27.0,65,29.65,10.0,WNW,4.6,-,N/A,,Overcast,290,2013-03-03 01:53:00
9:53 PM,37.0,28.0,70,29.64,10.0,WNW,3.5,-,N/A,,Overcast,290,2013-03-03 02:53:00
10:53 PM,37.9,27.0,65,29.63,10.0,NNW,4.6,-,N/A,,Overcast,330,2013-03-03 03:53:00
11:53 PM,37.0,27.0,67,29.63,10.0,Calm,Calm,-,N/A,,Overcast,0,2013-03-03 04:53:00